Vorticity
15 17 18 18 18 18 19 20 24 28 31 25 15 4 -5 -4 -0 5 11 9 9 9 12 17 20 22 22 21 22 22 22 19 15 10 6 5 4 4 5 7 8 9 9 9 9 9 9 8 7 7 7 7 7 7 5 3 0 -2 -3 -3 -2 -1 -0 0 1 1 1 2 1 2 3 4 4 4 3 3 4 5 7 8 10 11 11 13 11 7
14 16 18 19 18 17 18 18 21 26 33 31 23 11 -1 -2 0 3 6 4 4 6 11 15 19 21 22 22 23 24 24 22 19 15 11 8 6 5 4 5 5 6 6 7 8 9 9 8 7 7 7 7 7 7 6 4 2 0 -2 -3 -3 -2 -2 -1 -1 -1 -1 -0 0 0 1 2 4 5 5 5 5 5 6 8 10 12 13 16 15 12
12 14 17 18 18 17 18 18 19 23 30 33 28 18 4 1 1 1 -0 -2 -1 2 8 14 19 22 24 25 26 26 26 24 21 18 15 12 8 5 2 1 0 1 2 4 6 7 8 7 7 7 7 7 7 7 6 6 5 3 1 -0 -1 -2 -2 -2 -2 -2 -2 -1 -1 -1 -0 -0 1 3 5 5 5 5 5 7 10 13 16 19 18 16
12 13 15 17 17 17 17 18 19 21 26 32 31 23 9 3 0 -2 -6 -6 -6 -3 1 9 16 22 26 27 27 25 24 23 21 20 18 17 14 9 4 0 -1 -2 -0 2 5 7 8 7 7 6 6 6 6 6 6 7 6 6 4 3 1 1 -0 -1 -1 -1 -1 -1 -1 -1 -1 -1 -1 0 3 4 4 4 2 5 9 13 16 14 15 17
12 12 14 15 16 17 18 18 17 18 22 30 32 28 15 5 -1 -5 -8 -9 -9 -8 -6 1 9 16 20 22 22 21 19 19 19 19 19 19 18 16 12 7 3 1 1 3 5 7 8 7 7 6 5 5 5 5 5 6 7 7 6 5 4 3 2 1 1 1 0 0 0 0 -0 -1 -1 -0 1 2 2 1 -1 8 15 18 12 4 6 13
12 12 12 13 15 16 18 18 17 17 19 27 32 32 22 10 1 -5 -8 -8 -7 -7 -9 -7 -1 5 10 13 16 17 15 14 15 16 16 18 18 17 14 11 7 5 4 5 7 9 9 7 6 6 5 5 4 4 4 5 6 8 8 7 6 5 4 4 3 3 3 2 2 2 2 1 1 -0 -0 0 -0 -2 -5 3 14 22 18 6 3 7
13 12 12 13 14 15 17 18 17 17 18 25 31 33 26 14 3 -3 -4 -5 -4 -4 -8 -12 -11 -6 -1 5 10 13 11 10 12 14 15 17 19 20 17 14 11 8 7 7 9 11 10 8 6 5 4 4 4 5 4 4 6 8 10 9 9 7 6 6 6 6 6 5 4 4 4 3 3 2 1 1 -0 -2 -7 -6 1 10 17 15 14 13
15 12 11 12 13 14 15 17 17 17 17 22 29 33 30 18 9 3 2 -2 -3 -4 -7 -13 -15 -14 -8 -0 6 10 9 9 11 13 15 18 20 24 31 32 27 19 11 10 11 11 11 9 7 5 4 4 5 6 6 5 5 7 9 10 10 9 8 7 7 7 7 7 6 6 5 5 5 4 4 3 2 1 -2 -5 -6 -4 -1 8 21 30
16 13 11 11 11 12 13 15 16 17 18 21 26 31 33 23 15 10 9 2 0 -1 -5 -9 -13 -14 -11 -3 3 7 8 9 10 13 15 17 16 18 27 41 47 42 27 17 13 11 11 9 6 4 2 4 5 7 7 6 5 5 6 8 9 10 9 9 8 8 8 8 8 7 7 6 6 5 5 5 4 3 3 2 -2 -6 -12 -2 21 44
16 14 12 11 11 10 11 12 14 15 17 19 23 28 30 23 18 15 14 10 7 3 -2 -6 -9 -11 -11 -5 1 5 7 8 10 12 13 14 9 5 4 19 38 51 46 30 19 13 10 8 5 3 2 3 5 7 7 6 5 4 5 7 8 9 9 9 9 9 8 8 8 8 8 7 7 6 6 5 5 4 5 7 5 -0 -9 3 30 54
17 14 12 11 11 10 9 10 12 14 17 18 22 25 26 20 16 14 18 20 15 8 1 -2 -5 -7 -8 -3 1 4 4 6 8 9 7 6 1 -6 -10 -1 16 34 44 37 27 18 12 8 5 3 3 4 5 7 7 6 5 5 5 6 7 8 9 10 9 9 9 8 8 8 8 8 8 7 7 6 5 5 6 9 8 4 -3 11 36 55
18 15 12 11 10 9 8 9 10 13 16 17 20 23 26 22 15 11 15 23 22 16 10 6 -1 -6 -7 -1 3 4 2 5 5 4 -0 -6 -11 -15 -15 -7 5 18 27 30 28 22 14 9 6 4 3 4 5 6 7 7 7 6 5 5 6 7 9 10 10 10 9 8 8 7 8 8 8 8 7 6 5 5 6 10 10 6 -2 11 29 41
19 16 13 11 9 8 8 9 10 11 13 14 16 20 25 26 20 13 10 18 20 20 18 14 6 -3 -9 -5 1 6 6 5 2 -2 -9 -15 -18 -19 -16 -7 3 11 18 22 23 21 17 12 9 7 5 4 5 6 7 7 7 6 5 5 5 7 9 10 11 10 10 8 7 6 6 6 7 7 7 7 6 6 7 11 11 5 -5 1 12 21
19 17 14 11 9 8 7 8 9 10 11 11 14 17 22 25 24 19 13 14 17 19 17 15 11 5 -5 -7 -2 5 8 5 -0 -7 -15 -21 -22 -19 -16 -7 2 10 16 18 18 17 16 14 11 9 6 5 5 6 6 7 6 5 4 4 5 6 9 11 11 11 10 9 7 6 4 4 5 6 6 6 6 7 9 14 14 7 -7 -10 -7 -0
19 18 15 12 10 7 6 6 7 9 10 11 14 16 20 22 24 23 18 17 18 19 15 13 10 6 -3 -5 0 8 10 5 -2 -11 -20 -23 -22 -20 -17 -7 2 8 12 13 13 12 12 11 10 8 7 5 5 5 6 6 6 5 4 4 4 6 9 11 12 12 11 10 8 6 4 4 4 4 5 5 6 7 11 16 17 11 -3 -14 -18 -16
20 18 15 13 11 9 6 6 6 7 9 10 12 14 17 19 21 22 20 21 21 20 15 13 13 11 3 -3 0 8 16 7 -3 -13 -21 -23 -21 -17 -15 -7 0 6 9 9 8 8 9 9 8 7 6 5 5 5 6 6 6 5 3 3 3 5 7 10 11 12 12 10 8 6 5 4 4 4 5 5 6 7 11 17 19 15 5 -9 -18 -21
20 18 16 14 12 10 8 6 5 6 7 8 10 12 14 18 20 20 19 23 24 22 17 13 13 17 21 8 4 9 21 10 -2 -12 -18 -19 -15 -11 -8 -5 0 4 6 6 6 6 7 7 7 6 5 4 5 5 6 6 5 4 2 1 1 2 5 7 9 11 11 10 9 7 5 4 4 4 4 4 5 7 10 16 19 16 9 -1 -11 -19
20 18 16 14 12 11 9 7 6 6 7 9 10 12 14 17 19 20 20 23 25 25 21 13 11 15 24 18 17 19 25 13 1 -11 -19 -15 -8 -1 2 3 4 5 5 5 6 7 7 7 6 5 5 5 5 5 6 6 6 4 2 1 -0 -0 1 4 6 8 9 9 9 8 6 5 4 4 4 4 4 6 8 14 17 17 11 6 -1 -8
20 18 16 15 13 11 10 8 7 7 7 8 9 11 13 15 17 18 20 21 23 24 23 14 12 15 19 21 24 25 24 16 2 -13 -22 -14 -7 1 8 10 9 8 6 7 8 9 10 7 5 4 4 4 4 5 6 6 6 5 3 1 -1 -1 -1 1 3 5 7 8 8 8 7 6 5 4 3 3 4 5 7 12 15 16 13 9 6 3
21 19 16 15 14 12 9 8 8 8 8 9 9 10 12 14 16 17 19 20 21 21 19 14 13 14 15 19 22 23 22 18 3 -14 -24 -16 -12 -7 2 9 10 9 7 8 10 12 13 9 6 2 1 2 3 3 5 6 7 7 5 3 1 -1 -2 -1 0 3 5 6 6 7 7 7 6 5 5 5 5 5 6 10 13 14 12 9 8 7
21 20 18 15 13 11 10 9 8 8 9 11 11 11 13 15 17 19 20 21 22 22 20 15 14 14 15 17 20 22 25 18 6 -7 -16 -13 -10 -6 -1 8 11 9 7 9 10 13 16 14 9 4 0 0 1 2 4 6 7 7 7 5 3 1 -0 -1 -1 1 3 4 5 6 5 8 9 8 9 8 8 7 7 9 12 13 12 10 8 7
21 21 20 16 13 11 10 9 9 8 9 10 11 12 13 13 15 18 20 21 22 23 22 19 17 16 16 17 21 23 23 14 7 -1 -9 -9 -3 3 6 11 12 10 7 7 8 11 16 18 14 9 3 1 1 2 3 5 6 7 7 6 4 3 1 -0 -0 0 1 3 5 6 6 8 9 10 11 11 11 10 9 10 11 13 13 11 10 8
21 21 21 18 15 12 11 10 10 10 10 11 12 13 14 15 16 17 18 19 21 22 22 21 20 17 16 19 22 24 24 18 10 0 -12 -9 2 12 13 12 11 8 5 4 4 6 11 16 16 13 6 2 0 1 2 3 5 6 7 7 6 4 2 1 0 0 1 2 4 5 6 8 8 8 9 10 10 10 9 10 11 12 12 12 11 10
22 21 21 19 16 14 12 12 11 11 12 13 15 16 17 18 19 19 20 21 22 23 24 24 22 20 18 19 21 23 26 25 17 5 -10 -7 5 15 15 11 7 3 -1 -1 0 3 8 12 14 12 7 3 0 -0 1 2 3 5 6 6 6 5 4 2 1 1 1 1 3 4 5 6 7 7 7 7 8 8 9 10 11 12 12 12 12 11
20 20 20 19 17 16 14 13 13 12 12 13 15 17 19 21 21 21 21 23 24 24 25 23 21 20 20 19 19 21 25 25 20 10 -1 -1 7 14 14 7 1 -5 -8 -7 -4 1 6 10 12 11 7 4 1 -0 0 1 2 3 4 5 5 5 5 4 3 2 3 1 2 3 4 5 5 5 6 6 7 7 8 10 11 12 12 12 11 11
19 19 18 18 17 16 15 13 12 11 10 11 14 16 20 22 23 24 23 22 22 22 23 22 22 22 23 20 19 20 24 23 18 12 5 4 9 15 18 8 -2 -10 -14 -12 -8 -3 4 10 12 12 9 6 3 1 1 1 2 3 3 4 4 4 5 4 4 4 5 2 2 3 3 5 5 5 6 6 6 6 7 9 10 12 12 12 12 12
18 18 17 17 16 15 13 11 9 8 8 9 12 15 18 22 24 26 26 25 24 24 24 25 25 26 25 22 21 21 22 20 18 14 8 7 11 19 25 16 5 -7 -16 -16 -14 -9 -1 7 11 13 11 9 6 3 2 2 3 3 3 3 3 3 4 4 5 5 5 3 2 2 3 3 3 3 5 5 5 5 6 9 12 15 16 18 19 20
18 17 16 15 14 12 10 8 6 6 6 8 10 13 17 21 23 25 26 27 28 27 27 27 26 25 24 22 22 21 19 18 16 15 13 12 15 20 24 22 15 6 -5 -11 -15 -15 -9 1 8 12 13 10 8 5 4 4 3 3 2 2 2 2 3 4 5 6 7 3 2 2 3 4 2 1 1 2 3 4 6 10 14 19 23 28 30 31
18 16 15 13 11 9 7 5 4 4 5 6 8 11 15 18 21 23 26 28 29 29 28 28 27 26 25 25 25 24 21 18 16 15 16 18 20 21 22 22 22 20 12 3 -6 -12 -13 -4 5 11 14 11 9 6 5 4 4 3 2 1 1 1 1 3 4 6 9 6 3 2 3 4 5 4 1 0 1 2 3 5 8 13 19 24 28 29
17 16 14 12 10 8 6 5 4 4 4 5 6 8 11 14 17 21 25 28 29 29 29 29 29 29 29 29 28 27 24 20 16 14 14 17 20 22 21 20 23 26 23 16 7 -2 -8 -3 5 11 14 11 9 6 5 5 4 3 2 1 1 1 1 2 4 6 9 8 6 3 3 5 6 6 4 2 2 1 1 -1 -1 1 4 6 9 11
16 15 14 12 10 8 6 5 5 4 4 4 4 5 6 10 14 19 23 26 28 29 30 30 30 29 29 29 27 24 22 21 18 15 15 17 18 19 20 21 23 25 26 22 15 6 -2 -1 4 10 13 10 7 6 5 5 5 4 2 2 1 1 1 1 3 5 9 9 8 5 5 7 7 7 6 6 5 5 3 1 -1 -4 -8 -10 -11 -10
14 13 12 11 9 8 7 6 6 5 4 3 3 3 3 6 10 15 20 24 27 29 30 30 30 29 29 29 29 28 26 26 23 19 17 18 19 20 22 25 25 24 24 21 15 7 -1 -3 0 5 8 7 6 5 6 6 6 5 4 3 3 2 2 1 2 4 8 10 9 7 7 7 8 8 9 9 8 8 7 6 4 -0 -6 -10 -15 -18
13 12 11 10 9 8 7 7 7 6 5 4 3 3 3 4 7 11 16 22 26 30 32 32 31 30 30 30 32 34 33 31 26 20 17 17 18 19 20 24 27 26 22 19 12 4 -5 -5 -3 -0 4 4 4 5 6 7 7 7 5 4 4 3 3 2 2 4 7 10 10 8 7 7 7 9 11 10 9 8 8 8 7 5 1 -2 -6 -9
12 11 10 9 9 8 8 7 7 6 5 5 4 3 3 4 6 9 13 18 24 29 32 33 33 32 30 30 31 32 32 29 25 21 19 15 13 13 16 22 25 27 25 20 13 4 -4 -5 -4 -1 3 4 5 6 7 9 9 8 6 5 4 4 5 4 4 4 6 8 9 8 7 6 6 7 9 9 9 8 7 6 6 6 5 4 3 2
11 10 9 9 8 8 8 8 7 7 6 5 5 4 4 5 6 8 11 16 22 28 32 34 34 33 31 30 29 29 28 26 25 23 20 15 12 11 13 18 21 24 26 25 19 11 3 0 -0 2 5 8 9 10 11 12 12 11 8 6 5 4 5 5 5 5 6 8 8 8 7 6 6 6 6 8 9 9 7 6 5 5 6 6 7 7
10 9 9 8 8 8 8 7 7 7 6 6 6 5 5 5 6 8 11 16 21 27 32 35 36 35 34 32 30 28 26 25 26 23 14 13 13 13 14 16 18 20 23 26 24 19 13 10 9 9 11 14 15 17 18 17 16 14 12 9 7 6 5 4 4 4 5 7 7 7 7 7 7 7 8 9 10 10 9 7 6 5 6 6 6 6
9 9 8 8 7 7 7 7 7 7 6 6 6 6 5 6 7 9 11 16 21 27 32 35 36 36 35 34 33 31 29 27 23 16 6 8 12 16 18 18 17 17 18 22 23 23 21 20 19 18 17 17 18 19 21 21 20 17 14 11 9 7 5 3 1 1 2 4 5 6 6 7 8 9 9 10 11 11 10 9 8 7 7 7 6 6
9 8 8 8 7 7 7 7 7 6 6 6 6 6 6 6 8 10 12 16 21 27 33 36 38 38 37 35 33 30 28 24 17 8 -1 6 15 22 24 23 22 20 17 18 20 22 24 25 25 23 20 17 16 17 20 22 21 18 14 12 10 8 6 3 0 -1 -1 1 3 4 4 6 8 9 11 11 11 11 10 9 9 9 9 9 8 7
8 8 8 8 7 7 7 7 7 7 6 6 6 6 6 7 9 11 13 17 22 27 33 37 39 39 38 36 33 29 25 20 11 -0 -9 1 14 24 23 23 26 26 18 18 19 20 22 24 24 22 19 16 14 14 17 19 19 18 16 13 11 8 6 4 2 0 -0 1 2 3 3 5 8 10 12 11 11 11 10 8 8 8 9 9 10 10
8 8 7 7 7 7 7 7 7 8 8 7 7 8 8 10 11 13 16 19 23 28 33 37 39 39 39 37 33 29 24 17 5 -8 -18 -9 5 16 15 20 27 30 23 19 17 17 17 18 18 17 14 10 10 12 15 17 18 18 16 14 12 9 6 5 4 3 2 3 3 4 4 6 9 11 12 12 12 11 9 8 7 7 7 8 10 11
8 8 7 8 8 7 7 8 9 9 9 9 10 10 11 13 15 17 19 22 25 29 34 37 39 40 39 36 32 27 21 14 4 -9 -20 -19 -10 0 5 14 26 33 30 21 16 15 15 14 13 12 10 8 8 9 13 16 17 16 15 13 11 10 9 8 7 6 5 5 6 6 6 8 9 11 12 12 12 11 9 7 6 6 6 6 7 8
7 7 8 8 8 9 9 10 10 11 11 11 11 13 14 16 18 20 22 25 27 31 35 38 40 41 40 37 31 25 18 13 6 -3 -14 -23 -23 -16 -5 6 21 32 33 24 18 15 13 12 11 9 9 8 7 7 11 14 15 14 13 13 13 14 14 13 12 10 9 8 7 6 7 8 9 10 10 11 11 10 8 7 6 5 3 2 2 3
7 7 8 8 8 9 10 11 11 12 13 13 14 16 17 19 21 23 24 26 29 32 36 39 40 41 41 38 32 24 16 13 7 1 -3 -17 -25 -26 -16 -1 14 27 34 27 21 16 13 12 11 10 9 11 11 10 9 11 12 13 14 14 14 14 14 14 13 11 9 7 6 5 6 8 9 10 10 10 10 9 7 6 5 3 2 0 -0 -0
8 8 8 9 9 10 10 11 11 12 13 14 16 18 20 21 23 24 26 28 30 34 37 40 41 41 39 35 30 23 17 14 10 6 6 -3 -15 -24 -22 -7 8 20 29 28 24 20 16 14 12 12 13 14 14 13 10 10 10 11 13 12 12 11 11 12 13 12 10 8 7 7 8 10 11 11 11 11 10 9 7 5 4 2 1 0 -0 -1
9 9 9 9 9 9 10 10 11 12 13 15 17 19 20 21 23 24 26 28 31 34 38 41 43 42 39 34 27 21 16 15 13 11 11 7 -4 -15 -22 -10 3 14 23 25 25 24 23 20 17 15 16 15 15 13 11 11 11 12 12 11 11 11 12 14 15 15 14 12 11 10 11 12 13 13 12 12 11 10 8 6 5 4 3 2 1 1
9 9 9 9 9 9 9 9 10 11 13 16 17 19 20 20 22 23 25 28 31 35 39 42 43 42 39 35 28 20 15 15 14 13 14 14 7 -5 -19 -12 -2 8 16 21 24 26 28 28 25 21 17 14 13 12 11 11 11 11 10 9 9 10 12 12 12 12 12 11 11 11 11 12 12 13 13 12 12 11 10 9 7 6 5 5 4 4
9 9 9 9 9 9 9 9 10 11 13 15 16 18 18 19 20 22 25 27 31 35 40 42 42 40 39 35 28 21 16 17 16 15 16 18 14 5 -10 -12 -7 1 7 12 19 25 31 34 32 28 21 14 11 10 10 11 11 9 8 7 7 7 8 7 6 5 3 2 4 5 7 7 8 10 12 13 13 13 12 11 9 8 6 6 6 6
10 9 9 8 8 8 8 9 9 10 11 13 14 16 17 18 20 22 24 27 31 35 39 41 42 40 38 33 27 20 17 17 17 17 18 19 16 10 -2 -10 -9 -4 -2 1 8 17 26 32 34 32 27 19 14 10 8 11 12 10 6 3 2 2 2 3 3 1 -2 -2 -2 -0 1 3 5 7 10 12 14 14 13 12 10 8 6 6 6 6
10 9 9 8 8 8 8 8 8 8 9 11 13 15 16 18 20 21 24 27 31 34 38 40 41 40 38 34 28 22 17 16 16 17 17 17 16 12 3 -6 -8 -7 -8 -5 2 11 20 25 29 29 27 21 14 8 3 7 7 6 2 1 -1 -1 0 3 3 3 1 0 0 0 0 1 3 5 9 12 14 15 15 13 11 9 7 6 6 6
10 9 9 8 8 8 7 7 7 8 9 11 13 14 16 18 20 22 24 27 30 33 36 39 40 40 37 34 30 25 20 18 18 17 16 15 14 13 9 2 -3 -7 -9 -8 1 12 22 23 25 26 22 18 12 6 2 3 2 0 -2 -1 -0 1 2 4 6 6 6 6 5 5 4 3 4 5 8 12 15 17 18 16 15 13 10 9 9 9
10 10 9 9 8 8 7 7 8 9 10 12 14 15 17 19 20 22 24 26 29 32 35 38 38 38 36 33 30 26 23 21 21 20 19 16 14 14 14 11 6 0 -4 -7 1 14 26 24 25 25 19 17 12 8 6 5 3 1 -1 1 3 4 6 7 8 9 9 9 9 9 9 7 7 7 9 11 14 16 19 19 19 18 16 15 14 14
Height
5417 5420 5423 5428 5434 5440 5446 5452 5457 5464 5471 5478 5485 5491 5497 5502 5509 5515 5521 5526 5531 5536 5540 5544 5548 5553 5558 5563 5567 5572 5577 5583 5588 5593 5598 5603 5607 5612 5617 5622 5627 5631 5635 5639 5643 5647 5651 5655 5659 5662 5666 5670 5673 5677 5680 5683 5686 5690 5693 5696 5699 5702 5706 5709 5712 5715 5718 5720 5723 5726 5729 5731 5734 5737 5739 5740 5742 5745 5747 5749 5752 5754 5756 5757 5758 5760
5412 5416 5420 5425 5431 5437 5442 5447 5454 5461 5468 5475 5481 5486 5492 5498 5504 5509 5515 5521 5526 5530 5535 5540 5544 5549 5554 5559 5564 5568 5573 5579 5584 5589 5594 5599 5604 5609 5613 5618 5623 5627 5631 5636 5640 5644 5647 5651 5655 5659 5662 5666 5670 5673 5676 5680 5683 5687 5690 5693 5696 5700 5703 5706 5710 5712 5715 5718 5721 5724 5727 5728 5730 5732 5735 5737 5740 5742 5745 5747 5749 5751 5753 5755 5755 5756
5408 5412 5418 5423 5428 5433 5439 5444 5451 5458 5464 5470 5476 5482 5487 5493 5498 5504 5509 5514 5520 5525 5530 5535 5540 5545 5550 5555 5560 5565 5570 5575 5580 5586 5591 5596 5601 5606 5610 5615 5619 5623 5627 5632 5636 5640 5644 5648 5652 5655 5659 5663 5667 5670 5673 5677 5680 5683 5687 5690 5693 5697 5700 5703 5707 5710 5712 5716 5718 5721 5724 5726 5727 5729 5731 5734 5737 5739 5742 5744 5747 5748 5751 5752 5752 5753
5405 5410 5415 5420 5425 5430 5435 5441 5448 5454 5460 5466 5472 5477 5483 5488 5493 5498 5503 5508 5514 5520 5525 5531 5536 5541 5546 5551 5556 5561 5566 5571 5577 5582 5587 5592 5597 5602 5606 5611 5615 5619 5624 5628 5632 5637 5640 5644 5648 5652 5656 5660 5663 5667 5670 5673 5676 5680 5683 5686 5690 5693 5697 5701 5704 5707 5710 5713 5716 5718 5720 5722 5724 5727 5729 5732 5734 5737 5740 5743 5745 5747 5750 5751 5751 5750
5403 5407 5412 5416 5422 5427 5432 5438 5445 5451 5457 5463 5469 5475 5480 5484 5488 5492 5497 5504 5510 5515 5521 5526 5531 5536 5542 5547 5552 5557 5562 5568 5573 5579 5584 5589 5594 5598 5602 5607 5611 5615 5620 5624 5629 5633 5636 5640 5644 5649 5652 5656 5660 5663 5666 5669 5673 5676 5679 5683 5687 5690 5694 5697 5701 5704 5707 5710 5712 5715 5717 5719 5722 5724 5726 5729 5731 5734 5737 5741 5744 5747 5750 5752 5751 5749
5400 5404 5408 5414 5420 5426 5430 5436 5442 5449 5455 5460 5466 5471 5475 5479 5483 5487 5494 5500 5506 5511 5516 5521 5526 5532 5537 5542 5548 5553 5558 5564 5570 5575 5580 5585 5590 5594 5597 5602 5606 5611 5616 5620 5624 5628 5632 5636 5641 5646 5649 5653 5657 5660 5662 5666 5669 5673 5676 5679 5683 5687 5691 5694 5697 5701 5704 5707 5709 5712 5715 5717 5719 5721 5723 5726 5728 5730 5731 5734 5737 5742 5746 5748 5748 5747
5396 5401 5406 5412 5418 5423 5428 5435 5441 5447 5452 5457 5462 5466 5470 5475 5479 5484 5490 5496 5501 5506 5511 5517 5522 5527 5532 5538 5544 5549 5554 5560 5566 5571 5576 5581 5586 5590 5594 5597 5601 5605 5611 5615 5620 5624 5628 5632 5637 5642 5647 5650 5653 5657 5659 5662 5666 5669 5672 5676 5679 5683 5687 5691 5694 5697 5700 5703 5706 5709 5711 5714 5716 5718 5721 5723 5725 5727 5728 5730 5732 5734 5738 5741 5742 5743
5393 5398 5405 5410 5416 5421 5427 5433 5439 5443 5447 5452 5457 5462 5467 5472 5477 5481 5485 5490 5496 5501 5507 5512 5518 5523 5529 5534 5539 5545 5550 5556 5561 5567 5572 5577 5582 5586 5591 5595 5597 5601 5605 5610 5615 5619 5623 5629 5634 5639 5643 5646 5649 5653 5656 5659 5662 5665 5669 5672 5676 5680 5684 5687 5691 5694 5697 5700 5703 5706 5708 5711 5713 5715 5718 5720 5722 5724 5726 5728 5730 5732 5734 5736 5738 5739
5391 5397 5403 5408 5413 5419 5426 5432 5436 5439 5443 5448 5453 5459 5465 5470 5473 5477 5481 5486 5492 5498 5503 5508 5514 5519 5524 5529 5535 5540 5546 5551 5557 5562 5567 5572 5577 5581 5586 5591 5595 5598 5601 5605 5610 5614 5619 5626 5631 5636 5639 5642 5646 5649 5652 5656 5659 5662 5665 5669 5673 5677 5681 5684 5687 5690 5693 5697 5700 5702 5705 5707 5710 5712 5715 5717 5719 5721 5723 5726 5728 5731 5732 5734 5735 5736
5389 5394 5400 5405 5411 5417 5423 5427 5431 5435 5439 5445 5450 5456 5461 5466 5470 5473 5477 5483 5489 5494 5499 5503 5509 5514 5519 5524 5530 5535 5541 5546 5552 5557 5562 5567 5572 5576 5580 5585 5591 5596 5598 5601 5606 5611 5616 5622 5628 5632 5636 5639 5642 5646 5649 5652 5655 5659 5662 5666 5670 5673 5677 5681 5684 5687 5690 5693 5696 5699 5702 5704 5707 5709 5712 5714 5717 5719 5721 5724 5726 5729 5732 5732 5732 5733
5387 5392 5398 5403 5409 5415 5420 5423 5427 5431 5437 5442 5448 5453 5458 5462 5467 5470 5474 5479 5484 5489 5494 5499 5504 5509 5515 5520 5526 5531 5536 5542 5548 5553 5558 5563 5567 5571 5574 5578 5583 5589 5594 5598 5603 5607 5613 5619 5625 5629 5633 5636 5639 5642 5646 5649 5652 5656 5659 5662 5667 5670 5674 5677 5680 5683 5687 5690 5693 5696 5698 5701 5704 5706 5709 5711 5714 5717 5719 5722 5725 5728 5730 5732 5731 5731
5385 5391 5396 5402 5408 5413 5418 5422 5425 5430 5436 5442 5447 5452 5457 5461 5464 5467 5471 5475 5479 5485 5490 5495 5500 5505 5511 5517 5522 5527 5532 5538 5544 5549 5554 5558 5562 5566 5570 5574 5578 5583 5589 5595 5600 5605 5611 5616 5621 5626 5629 5633 5636 5639 5643 5646 5649 5653 5656 5660 5663 5667 5671 5674 5677 5680 5683 5687 5690 5692 5696 5698 5701 5703 5706 5708 5711 5714 5717 5720 5723 5727 5729 5731 5731 5730
5383 5389 5394 5400 5406 5411 5415 5419 5425 5431 5436 5441 5445 5449 5453 5457 5460 5464 5467 5471 5476 5481 5486 5491 5496 5502 5507 5512 5518 5523 5528 5534 5540 5545 5549 5553 5557 5562 5567 5571 5575 5580 5585 5590 5596 5602 5607 5612 5617 5621 5625 5629 5633 5636 5640 5643 5647 5650 5653 5657 5660 5664 5667 5671 5674 5677 5680 5683 5687 5689 5692 5695 5697 5700 5702 5706 5709 5712 5714 5717 5721 5725 5727 5731 5731 5730
5382 5387 5393 5398 5403 5408 5412 5417 5422 5428 5433 5437 5440 5443 5447 5451 5456 5461 5465 5469 5473 5478 5483 5487 5493 5498 5504 5509 5514 5519 5524 5530 5536 5541 5545 5549 5554 5558 5563 5568 5572 5577 5581 5587 5592 5598 5603 5607 5612 5617 5621 5625 5629 5633 5637 5640 5643 5647 5650 5653 5657 5661 5664 5667 5670 5673 5677 5680 5683 5686 5689 5692 5694 5697 5699 5702 5706 5709 5712 5715 5719 5722 5725 5728 5729 5729
5381 5386 5391 5396 5401 5406 5410 5415 5420 5424 5427 5431 5435 5439 5444 5450 5456 5461 5464 5467 5470 5475 5480 5485 5490 5495 5500 5505 5511 5516 5520 5526 5532 5537 5542 5546 5550 5555 5561 5565 5570 5574 5578 5583 5589 5594 5599 5603 5608 5613 5617 5622 5626 5629 5633 5637 5640 5643 5647 5650 5654 5657 5661 5664 5667 5670 5673 5677 5680 5683 5686 5689 5691 5694 5697 5700 5703 5706 5709 5713 5717 5719 5722 5726 5727 5727
5379 5384 5389 5393 5398 5403 5408 5412 5417 5421 5424 5429 5434 5440 5446 5452 5457 5460 5462 5464 5467 5472 5477 5482 5487 5491 5496 5502 5507 5512 5517 5523 5528 5533 5537 5541 5546 5552 5558 5563 5567 5571 5575 5580 5585 5590 5595 5600 5605 5609 5614 5618 5622 5626 5629 5633 5637 5640 5643 5647 5650 5654 5657 5661 5664 5667 5670 5674 5677 5680 5683 5686 5688 5691 5694 5697 5700 5703 5707 5710 5713 5717 5719 5722 5724 5726
5377 5382 5387 5391 5396 5401 5405 5410 5414 5418 5423 5428 5434 5439 5444 5448 5451 5453 5457 5460 5465 5470 5475 5479 5483 5487 5492 5497 5503 5508 5514 5519 5524 5528 5532 5537 5543 5550 5555 5560 5564 5568 5572 5577 5582 5587 5592 5596 5601 5606 5610 5614 5618 5622 5626 5629 5633 5636 5640 5643 5647 5651 5654 5658 5661 5664 5667 5671 5674 5677 5680 5682 5685 5688 5691 5694 5697 5700 5703 5707 5711 5714 5716 5718 5721 5723
5376 5381 5385 5390 5395 5399 5403 5408 5412 5417 5421 5426 5431 5435 5438 5442 5445 5449 5454 5459 5465 5470 5473 5476 5479 5483 5489 5494 5500 5506 5510 5515 5519 5524 5528 5534 5540 5547 5552 5556 5560 5565 5569 5574 5578 5583 5588 5593 5597 5602 5606 5610 5614 5618 5622 5625 5629 5632 5636 5640 5643 5647 5651 5655 5658 5661 5664 5667 5671 5673 5677 5679 5682 5685 5688 5692 5695 5697 5701 5704 5708 5711 5713 5715 5717 5720
5375 5379 5383 5388 5393 5397 5402 5406 5411 5415 5420 5424 5428 5431 5435 5439 5443 5449 5454 5459 5464 5468 5471 5473 5477 5482 5487 5492 5496 5501 5506 5511 5515 5520 5525 5530 5536 5542 5548 5553 5557 5562 5567 5571 5576 5580 5585 5589 5593 5597 5602 5606 5610 5614 5617 5621 5625 5629 5632 5636 5640 5644 5648 5651 5655 5658 5662 5665 5667 5671 5673 5677 5679 5682 5686 5689 5692 5694 5698 5701 5705 5708 5710 5712 5714 5717
5373 5378 5382 5387 5391 5396 5401 5405 5409 5413 5417 5421 5424 5428 5433 5437 5442 5447 5452 5456 5459 5463 5466 5470 5475 5480 5485 5489 5493 5497 5503 5508 5512 5517 5522 5526 5532 5538 5545 5550 5554 5559 5563 5568 5572 5577 5581 5586 5590 5594 5598 5602 5606 5610 5614 5617 5621 5625 5629 5633 5637 5641 5645 5648 5652 5655 5658 5662 5665 5669 5671 5674 5677 5680 5683 5686 5688 5691 5695 5698 5702 5706 5707 5709 5711 5714
5373 5377 5382 5386 5390 5395 5399 5403 5407 5411 5415 5418 5423 5427 5431 5435 5439 5443 5447 5451 5455 5460 5464 5470 5474 5478 5482 5486 5490 5495 5500 5505 5509 5513 5517 5522 5528 5535 5542 5547 5551 5555 5560 5564 5568 5573 5578 5582 5586 5590 5595 5598 5602 5606 5610 5614 5618 5622 5625 5629 5633 5637 5642 5646 5649 5652 5655 5659 5663 5667 5668 5671 5674 5677 5680 5682 5685 5688 5692 5695 5699 5702 5705 5707 5709 5711
5372 5376 5380 5385 5390 5394 5398 5402 5406 5410 5414 5418 5423 5427 5429 5432 5437 5441 5444 5448 5453 5458 5463 5468 5472 5474 5477 5482 5487 5491 5496 5501 5505 5509 5514 5519 5525 5532 5538 5543 5547 5552 5557 5561 5565 5569 5574 5578 5582 5587 5591 5595 5599 5603 5607 5610 5614 5618 5622 5626 5630 5634 5638 5642 5646 5649 5652 5656 5660 5664 5665 5667 5670 5673 5676 5678 5682 5685 5688 5692 5696 5699 5702 5704 5706 5708
5371 5375 5379 5384 5389 5393 5397 5401 5406 5410 5413 5418 5421 5424 5426 5430 5434 5438 5442 5447 5451 5455 5459 5462 5465 5469 5474 5479 5484 5488 5493 5497 5501 5506 5511 5517 5522 5527 5533 5539 5544 5549 5553 5558 5562 5566 5570 5574 5578 5582 5587 5591 5595 5599 5603 5607 5611 5614 5618 5622 5627 5631 5635 5639 5642 5646 5650 5654 5657 5660 5662 5665 5667 5670 5672 5675 5678 5682 5685 5688 5692 5696 5699 5701 5703 5705
5370 5374 5378 5383 5387 5392 5396 5401 5405 5409 5413 5417 5419 5421 5424 5428 5432 5435 5439 5443 5447 5450 5453 5457 5462 5467 5474 5479 5483 5487 5491 5495 5499 5504 5509 5514 5517 5522 5528 5536 5541 5545 5549 5554 5558 5562 5566 5570 5573 5578 5582 5587 5591 5595 5599 5603 5607 5611 5615 5619 5623 5628 5632 5636 5640 5643 5647 5652 5654 5656 5659 5662 5664 5667 5670 5672 5676 5679 5682 5685 5689 5693 5696 5698 5700 5702
5369 5373 5377 5382 5386 5391 5396 5400 5404 5408 5412 5415 5418 5421 5424 5427 5430 5433 5437 5441 5444 5448 5452 5457 5462 5468 5473 5477 5480 5483 5487 5491 5495 5501 5506 5509 5512 5517 5525 5532 5537 5541 5545 5550 5554 5559 5562 5566 5570 5574 5579 5583 5587 5591 5595 5599 5603 5607 5612 5616 5620 5625 5629 5633 5637 5641 5645 5648 5650 5653 5656 5659 5662 5664 5667 5670 5673 5676 5679 5682 5686 5689 5692 5695 5697 5699
5368 5372 5377 5382 5386 5391 5395 5400 5403 5407 5411 5413 5417 5419 5422 5425 5428 5432 5436 5440 5443 5447 5451 5456 5460 5464 5466 5469 5473 5477 5482 5486 5492 5497 5502 5504 5508 5514 5522 5528 5533 5537 5541 5546 5552 5556 5560 5563 5567 5571 5575 5579 5583 5587 5592 5596 5600 5604 5608 5613 5617 5622 5626 5630 5634 5638 5642 5645 5647 5650 5654 5657 5660 5662 5664 5667 5671 5674 5677 5680 5683 5687 5690 5692 5695 5697
5369 5373 5377 5382 5386 5391 5395 5399 5402 5406 5409 5412 5415 5418 5421 5424 5427 5431 5434 5437 5439 5442 5446 5450 5454 5456 5459 5463 5469 5474 5478 5484 5489 5495 5498 5502 5507 5512 5518 5523 5529 5533 5538 5543 5548 5552 5556 5559 5563 5567 5572 5576 5580 5584 5589 5593 5597 5601 5606 5610 5614 5619 5623 5627 5631 5634 5638 5642 5644 5647 5651 5655 5657 5660 5662 5665 5668 5672 5675 5678 5682 5685 5687 5690 5692 5695
5368 5372 5377 5381 5385 5390 5394 5397 5401 5405 5408 5411 5414 5417 5420 5423 5426 5429 5431 5432 5435 5438 5442 5446 5448 5452 5456 5462 5467 5471 5476 5482 5487 5491 5495 5501 5506 5510 5513 5518 5524 5529 5534 5539 5544 5548 5552 5556 5560 5564 5568 5573 5577 5582 5586 5590 5594 5598 5603 5607 5612 5616 5620 5624 5627 5631 5636 5639 5641 5644 5648 5652 5655 5657 5660 5663 5666 5670 5673 5677 5680 5683 5686 5688 5691 5693
5368 5372 5376 5380 5384 5388 5392 5396 5400 5403 5406 5409 5412 5415 5418 5421 5423 5426 5427 5430 5433 5437 5440 5443 5446 5449 5454 5459 5462 5466 5472 5479 5484 5488 5493 5499 5503 5506 5509 5513 5519 5525 5531 5535 5540 5544 5548 5553 5557 5561 5566 5570 5574 5579 5583 5587 5591 5596 5600 5604 5608 5612 5617 5621 5624 5628 5632 5636 5639 5642 5646 5648 5652 5655 5658 5661 5664 5668 5672 5676 5679 5682 5685 5687 5689 5690
5367 5371 5375 5379 5383 5387 5391 5394 5398 5401 5405 5407 5411 5413 5416 5418 5421 5423 5425 5428 5432 5435 5437 5439 5442 5446 5450 5453 5457 5463 5470 5476 5481 5485 5491 5496 5499 5502 5505 5510 5516 5521 5526 5532 5536 5541 5545 5549 5553 5557 5562 5566 5571 5576 5580 5584 5588 5593 5597 5601 5605 5609 5613 5617 5621 5624 5628 5633 5637 5640 5643 5645 5648 5652 5655 5658 5662 5666 5670 5673 5676 5679 5682 5684 5685 5687
5367 5371 5374 5378 5382 5386 5390 5393 5397 5400 5403 5406 5408 5411 5413 5416 5418 5421 5424 5427 5429 5431 5432 5434 5438 5442 5446 5450 5455 5462 5468 5473 5477 5482 5488 5493 5496 5498 5502 5507 5512 5517 5522 5527 5532 5537 5540 5544 5549 5553 5558 5563 5568 5572 5577 5581 5586 5590 5594 5598 5602 5606 5610 5614 5617 5622 5626 5631 5635 5637 5640 5643 5646 5649 5652 5656 5659 5662 5665 5669 5672 5675 5678 5680 5681 5682
5367 5370 5374 5378 5382 5385 5389 5392 5395 5398 5401 5404 5406 5409 5411 5414 5416 5418 5421 5423 5425 5427 5429 5432 5435 5438 5442 5447 5452 5458 5463 5467 5472 5479 5486 5490 5492 5495 5499 5504 5508 5512 5517 5523 5527 5531 5535 5539 5545 5550 5555 5560 5565 5570 5574 5579 5583 5587 5591 5595 5599 5603 5607 5610 5615 5619 5624 5629 5632 5634 5637 5640 5643 5646 5649 5652 5655 5658 5661 5664 5667 5671 5673 5676 5678 5680
5367 5371 5374 5378 5381 5384 5387 5391 5393 5396 5399 5402 5404 5407 5409 5411 5413 5416 5418 5420 5422 5424 5427 5429 5432 5435 5439 5444 5448 5453 5457 5463 5470 5477 5483 5487 5490 5493 5497 5502 5505 5509 5513 5519 5523 5527 5531 5537 5542 5547 5552 5557 5562 5567 5571 5577 5581 5584 5587 5592 5596 5600 5603 5607 5612 5617 5621 5625 5628 5632 5634 5637 5640 5642 5646 5649 5652 5655 5657 5660 5663 5666 5669 5672 5674 5676
5367 5371 5374 5377 5381 5383 5387 5389 5392 5395 5397 5400 5402 5404 5407 5409 5411 5413 5415 5417 5419 5421 5423 5426 5429 5432 5436 5441 5445 5450 5455 5462 5469 5475 5480 5484 5487 5492 5496 5499 5502 5506 5510 5515 5520 5524 5529 5535 5540 5545 5550 5555 5560 5565 5569 5574 5577 5581 5584 5588 5592 5596 5600 5605 5609 5613 5617 5621 5625 5628 5631 5635 5638 5640 5643 5646 5648 5652 5654 5657 5659 5662 5665 5667 5670 5672
5367 5371 5374 5377 5380 5382 5385 5388 5391 5393 5396 5398 5400 5402 5404 5406 5408 5410 5412 5414 5416 5418 5420 5422 5425 5429 5433 5437 5442 5447 5452 5459 5466 5471 5476 5480 5485 5489 5493 5497 5499 5502 5506 5511 5516 5521 5526 5532 5537 5542 5547 5552 5557 5562 5566 5570 5573 5577 5581 5585 5589 5593 5598 5602 5606 5610 5614 5618 5621 5624 5627 5631 5634 5637 5640 5642 5645 5648 5652 5654 5657 5659 5662 5664 5667 5668
5367 5370 5373 5376 5379 5382 5384 5387 5389 5391 5394 5396 5398 5400 5402 5404 5406 5407 5409 5411 5413 5415 5417 5419 5422 5426 5430 5434 5438 5443 5448 5454 5460 5466 5472 5477 5482 5487 5491 5494 5497 5500 5504 5508 5513 5518 5524 5528 5533 5537 5543 5549 5554 5558 5562 5566 5570 5575 5579 5583 5587 5591 5595 5599 5603 5607 5612 5615 5618 5622 5624 5627 5631 5634 5637 5640 5643 5646 5649 5652 5654 5657 5659 5662 5664 5666
5366 5369 5372 5375 5378 5380 5383 5385 5387 5389 5392 5394 5396 5397 5399 5401 5403 5405 5406 5408 5410 5412 5414 5416 5419 5422 5426 5430 5435 5440 5445 5450 5457 5464 5470 5475 5479 5484 5488 5491 5494 5498 5502 5506 5511 5516 5522 5526 5531 5536 5541 5546 5551 5555 5559 5563 5568 5572 5577 5581 5584 5588 5593 5597 5601 5604 5608 5612 5615 5618 5622 5625 5628 5632 5635 5638 5641 5644 5647 5649 5651 5654 5656 5658 5661 5663
5366 5368 5371 5374 5377 5379 5381 5383 5385 5387 5389 5392 5393 5395 5397 5399 5400 5402 5403 5405 5407 5409 5411 5413 5416 5419 5423 5427 5432 5437 5442 5449 5455 5462 5468 5472 5476 5480 5485 5488 5492 5496 5500 5504 5508 5514 5519 5524 5528 5534 5539 5544 5548 5552 5556 5561 5565 5570 5573 5577 5581 5586 5590 5594 5597 5601 5605 5609 5612 5616 5619 5622 5626 5629 5632 5635 5638 5641 5643 5646 5648 5651 5653 5655 5658 5660
5365 5368 5370 5373 5375 5377 5379 5382 5383 5385 5387 5389 5391 5393 5395 5396 5397 5399 5401 5402 5404 5406 5408 5410 5413 5416 5420 5424 5429 5434 5440 5446 5452 5457 5463 5468 5472 5477 5481 5485 5489 5493 5497 5502 5507 5512 5517 5521 5526 5530 5535 5540 5545 5550 5554 5558 5562 5566 5570 5574 5579 5584 5587 5591 5595 5598 5602 5606 5609 5613 5616 5620 5623 5626 5629 5632 5635 5637 5640 5642 5645 5647 5650 5652 5655 5657
5365 5367 5370 5372 5374 5376 5378 5380 5382 5384 5385 5387 5389 5391 5392 5393 5395 5396 5397 5399 5401 5403 5405 5407 5410 5413 5417 5421 5426 5431 5437 5442 5447 5452 5458 5464 5469 5473 5477 5481 5485 5490 5494 5499 5504 5509 5514 5518 5522 5527 5532 5537 5542 5547 5551 5555 5559 5563 5568 5572 5577 5581 5584 5587 5591 5596 5599 5603 5607 5610 5613 5617 5620 5623 5626 5629 5632 5635 5637 5640 5642 5645 5647 5650 5652 5655
5364 5367 5369 5371 5373 5375 5377 5378 5380 5382 5383 5385 5387 5388 5390 5391 5392 5393 5395 5396 5398 5400 5402 5404 5407 5411 5415 5419 5424 5429 5434 5439 5444 5448 5453 5459 5465 5470 5474 5478 5482 5487 5491 5496 5502 5507 5511 5515 5520 5525 5530 5535 5539 5543 5547 5552 5556 5560 5565 5569 5573 5576 5579 5584 5588 5593 5597 5601 5604 5607 5611 5614 5617 5621 5623 5626 5629 5631 5634 5637 5639 5642 5645 5647 5649 5651
5364 5366 5368 5370 5372 5373 5375 5377 5378 5379 5381 5382 5384 5386 5387 5388 5389 5391 5392 5393 5395 5397 5399 5402 5404 5408 5412 5416 5421 5426 5432 5437 5441 5445 5449 5455 5461 5467 5471 5476 5480 5484 5488 5494 5499 5504 5509 5513 5517 5522 5527 5532 5536 5540 5544 5548 5553 5557 5562 5566 5569 5573 5578 5583 5587 5591 5594 5598 5602 5605 5608 5612 5615 5617 5620 5622 5625 5628 5631 5633 5636 5639 5641 5644 5647 5649
5364 5366 5367 5369 5371 5372 5373 5375 5376 5377 5379 5381 5382 5383 5385 5386 5387 5388 5389 5391 5392 5394 5396 5399 5402 5405 5409 5413 5418 5424 5429 5434 5437 5441 5446 5451 5457 5463 5469 5473 5477 5482 5486 5492 5497 5501 5506 5510 5515 5519 5524 5528 5532 5536 5540 5545 5550 5555 5560 5563 5567 5571 5577 5581 5584 5587 5591 5595 5598 5602 5605 5608 5611 5614 5616 5619 5622 5624 5627 5630 5632 5635 5637 5640 5643 5646
5363 5365 5367 5368 5369 5371 5372 5373 5374 5376 5377 5378 5380 5382 5383 5384 5384 5385 5387 5388 5389 5392 5393 5396 5399 5403 5407 5411 5416 5421 5427 5430 5434 5437 5442 5448 5454 5461 5466 5471 5475 5479 5483 5489 5494 5498 5503 5508 5512 5517 5521 5526 5531 5535 5538 5542 5547 5552 5557 5561 5565 5568 5572 5576 5579 5583 5588 5592 5595 5599 5602 5605 5608 5611 5613 5616 5618 5621 5623 5626 5628 5631 5633 5636 5639 5641
5362 5364 5366 5367 5368 5370 5371 5372 5373 5374 5376 5377 5378 5380 5381 5382 5382 5383 5384 5386 5387 5389 5391 5394 5397 5401 5404 5409 5414 5419 5424 5428 5431 5435 5440 5446 5452 5458 5464 5468 5472 5477 5481 5486 5491 5496 5500 5504 5508 5513 5518 5523 5527 5532 5536 5540 5544 5549 5553 5558 5562 5565 5569 5572 5577 5582 5586 5589 5592 5596 5599 5602 5605 5607 5610 5612 5615 5617 5620 5622 5625 5627 5629 5632 5635 5637
5362 5364 5365 5367 5368 5369 5370 5371 5372 5373 5374 5376 5377 5378 5379 5380 5381 5381 5382 5383 5385 5387 5388 5391 5394 5398 5402 5406 5412 5417 5422 5426 5429 5433 5438 5443 5449 5456 5461 5466 5470 5474 5479 5483 5488 5493 5497 5501 5505 5510 5515 5520 5525 5528 5532 5537 5541 5545 5550 5554 5559 5562 5566 5570 5575 5579 5582 5585 5589 5592 5596 5598 5601 5604 5606 5608 5611 5613 5616 5618 5620 5622 5625 5627 5630 5633
5362 5363 5365 5366 5367 5368 5370 5371 5372 5372 5373 5375 5376 5377 5378 5379 5379 5380 5381 5382 5383 5385 5387 5389 5392 5396 5400 5404 5410 5415 5420 5424 5427 5431 5436 5442 5447 5453 5459 5464 5468 5472 5477 5481 5486 5490 5495 5498 5503 5507 5512 5517 5521 5525 5530 5534 5539 5543 5547 5552 5556 5560 5564 5567 5571 5574 5577 5581 5584 5588 5591 5594 5597 5600 5602 5604 5607 5610 5612 5614 5617 5619 5621 5624 5627 5629
5362 5363 5364 5366 5367 5368 5369 5370 5371 5372 5372 5373 5375 5376 5377 5377 5378 5379 5379 5380 5382 5383 5385 5387 5390 5394 5398 5403 5408 5413 5418 5422 5426 5429 5434 5440 5446 5451 5457 5462 5466 5471 5475 5480 5484 5488 5492 5496 5500 5505 5509 5513 5517 5522 5527 5532 5536 5540 5544 5548 5552 5556 5560 5563 5567 5570 5574 5577 5581 5584 5587 5590 5593 5595 5598 5601 5604 5607 5609 5611 5613 5615 5618 5621 5623 5626
5361 5362 5364 5365 5367 5367 5369 5370 5371 5371 5372 5372 5374 5375 5376 5376 5377 5377 5378 5379 5380 5382 5383 5386 5388 5392 5397 5401 5406 5411 5417 5421 5425 5429 5434 5439 5444 5450 5456 5460 5464 5469 5474 5478 5482 5486 5490 5495 5499 5502 5505 5510 5515 5519 5524 5528 5533 5537 5542 5546 5549 5553 5556 5560 5563 5567 5571 5574 5577 5580 5583 5586 5589 5591 5594 5597 5600 5603 5606 5608 5610 5612 5615 5617 5620 5622
5361 5362 5363 5365 5366 5367 5368 5369 5370 5370 5371 5372 5372 5374 5375 5375 5376 5376 5377 5378 5379 5381 5382 5384 5387 5391 5395 5400 5405 5410 5415 5419 5424 5428 5433 5438 5443 5449 5454 5459 5463 5467 5472 5477 5481 5484 5488 5494 5499 5502 5505 5508 5513 5518 5522 5527 5531 5535 5539 5543 5547 5550 5553 5557 5560 5564 5567 5570 5573 5576 5580 5583 5586 5588 5591 5594 5597 5599 5602 5605 5607 5609 5611 5614 5616 5618
5361 5362 5363 5365 5366 5367 5368 5369 5369 5370 5370 5371 5372 5373 5374 5375 5375 5376 5377 5377 5378 5380 5382 5384 5387 5390 5394 5399 5404 5408 5413 5418 5422 5427 5432 5437 5442 5447 5452 5457 5461 5465 5470 5474 5478 5482 5485 5490 5496 5502 5505 5507 5511 5516 5520 5524 5528 5532 5537 5541 5544 5547 5550 5554 5557 5561 5564 5567 5570 5573 5577 5580 5583 5586 5588 5590 5592 5595 5598 5601 5604 5606 5608 5610 5612 5615